This is the latest recevied weather packets stored in our database for station/object N7CW. If no packets are shown the sender has not sent any weather packets the latest 10 day(s).
| Time | Temp. | Humidity | Pressure | Rain* | Wind** | Luminosity | Snow |
|---|---|---|---|---|---|---|---|
| 1777844866 | 21.67° C | 27% | 1015.3 hPa | 0 mm | - | 678 W/m² | - |
| 1777844562 | 21.67° C | 29% | 1015.5 hPa | 0 mm | - | 671 W/m² | - |
| 1777844260 | 21.11° C | 29% | 1015.5 hPa | 0 mm | - | 750 W/m² | - |
| 1777843957 | 22.22° C | 29% | 1015.5 hPa | 0 mm | - | 140 W/m² | - |
| 1777843654 | 22.22° C | 28% | 1015.5 hPa | 0 mm | - | 771 W/m² | - |
| 1777843352 | 22.78° C | 28% | 1015.7 hPa | 0 mm | - | 749 W/m² | - |
| 1777843049 | 21.67° C | 29% | 1015.8 hPa | 0 mm | - | 758 W/m² | - |
| 1777842745 | 21.67° C | 28% | 1015.9 hPa | 0 mm | - | 830 W/m² | - |
| 1777842441 | 21.11° C | 29% | 1016 hPa | 0 mm | - | 848 W/m² | - |
| 1777842139 | 21.67° C | 28% | 1016.1 hPa | 0 mm | - | 785 W/m² | - |
| 1777841834 | 21.11° C | 29% | 1015.9 hPa | 0 mm | - | 755 W/m² | - |
| 1777841530 | 21.11° C | 28% | 1016.1 hPa | 0 mm | - | 774 W/m² | - |
| 1777841227 | 22.22° C | 27% | 1016.2 hPa | 0 mm | - | 796 W/m² | - |
| 1777840924 | 21.67° C | 26% | 1016.4 hPa | 0 mm | - | 796 W/m² | - |
| 1777840621 | 22.22° C | 25% | 1016.1 hPa | 0 mm | - | 791 W/m² | - |
| 1777840319 | 21.67° C | 25% | 1016.4 hPa | 0 mm | - | 796 W/m² | - |
| 1777840016 | 21.67° C | 26% | 1016.5 hPa | 0 mm | - | 798 W/m² | - |
| 1777839714 | 21.67° C | 27% | 1016.6 hPa | 0 mm | - | 800 W/m² | - |
| 1777839412 | 21.67° C | 25% | 1016.2 hPa | 0 mm | - | 805 W/m² | - |
| 1777839109 | 21.67° C | 26% | 1016.6 hPa | 0 mm | - | 811 W/m² | - |
| 1777838805 | 22.22° C | 26% | 1016.2 hPa | 0 mm | - | 820 W/m² | - |
| 1777838501 | 21.11° C | 28% | 1016.7 hPa | 0 mm | - | 844 W/m² | - |
| 1777838198 | 21.67° C | 28% | 1016.5 hPa | 0 mm | - | 828 W/m² | - |
| 1777837895 | 22.22° C | 26% | 1016.7 hPa | 0 mm | - | 825 W/m² | - |
| 1777837592 | 21.67° C | 27% | 1016.6 hPa | 0 mm | - | 845 W/m² | - |
* Rain latest hour (hover to see other rain measurements)
** Current wind speed in m/s (hover to see current wind gust speed)